Regional Weather Roundup
Issued by NWS Northern Indiana

Home | Current Version | Previous Version | Text Only | Print | Product List | Glossary Off
Versions: 1 2 3 4 5 6 7 8 9 10 11 12 13 14 15 16 17 18 19 20 21 22 23 24 25 26 27 28 29 30 31 32 33 34 35 36 37 38 39 40 41 42 43 44 45 46 47 48 49 50

000
ASUS43 KIWX 282200
RWRIWX

KIWX WEATHER ROUNDUP
NATIONAL WEATHER SERVICE NORTHERN INDIANA
600 PM EDT FRI APR 28 2017

NOTE: "FAIR" INDICATES FEW OR NO CLOUDS BELOW 12,000 FEET WITH NO
SIGNIFICANT WEATHER AND/OR OBSTRUCTIONS TO VISIBILITY.

* THESE STATIONS ARE NOT UNDER NWS QUALITY CONTROL. THEY ALSO MAY NOT
  REPORT WEATHER SUCH AS PRECIPITATION OR FOG.

INZ001>027-282300-
NORTHERN INDIANA

CITY           SKY/WX    TMP DP  RH WIND       PRES   REMARKS
GARY*          PTSUNNY   54  45  71 VRB5      29.85F
SOUTH BEND     CLOUDY    60  46  59 SE13      29.86F
ELKHART*       PTSUNNY   61  45  55 S9        29.85F
GOSHEN         CLOUDY    59  47  64 SE12      29.88F
MONTICELLO*    LGT RAIN  54  51  89 SE10      29.82F
ANGOLA*        CLOUDY    57  46  67 SE7       29.91F
FORT WAYNE     LGT RAIN  55  51  86 SE7       29.95R

$$
INZ028>050-282300-
CENTRAL INDIANA

CITY           SKY/WX    TMP DP  RH WIND       PRES   REMARKS
LAFAYETTE      LGT RAIN  54  53  97 E6        29.85F
MUNCIE*        LGT RAIN  60  51  72 E3        29.97R
INDIANAPOLIS   TSTM      59  54  83 NE13      29.84F

$$
MIZ043>046-050>051-056>058-064>065-071>073-077>080-282300-
SOUTHWEST LOWER MICHIGAN

CITY           SKY/WX    TMP DP  RH WIND       PRES   REMARKS
BATTLE CREEK   CLOUDY    61  43  51 S14       29.91S
BENTON HARBOR  CLOUDY    61  44  53 E6        29.84F
HOLLAND        CLOUDY    57  45  64 CALM      29.89F
GRAND RAPIDS   CLOUDY    60  46  59 S10       29.89F
KALAMAZOO      CLOUDY    61  40  45 S9        29.90F

$$
OHZ001>008-015>018-024>025-282300-
NORTHWEST OHIO

CITY           SKY/WX    TMP DP  RH WIND       PRES   REMARKS
DEFIANCE       LGT RAIN  54  50  86 VRB6      29.96F
FINDLAY        CLOUDY    58  51  78 E8        29.95F
TOLEDO EXPRESS LGT RAIN  55  52  89 S5        29.95F
TOLEDO METCALF CLOUDY    58  53  84 S9        29.97F
LIMA           CLOUDY    57  52  83 E7        29.95F

$$
AND FOR LAKE MICHIGAN COASTAL AND OPEN LAKE BUOY OBSERVATIONS

STATION/POSITION TEMP    WIND        PRES    VSBY  WAVE
                 AIR SEA DIR/SP/G                  HT/PER
                 (F)     (DEG/KT/KT) (MB)    (MI)  (FT/S)
CALUMET HARBOR    48      10/  8/ 11 1010.5F
MICHIGAN CITY     61     120/  6/  8   N/A
BURNS HARBOR      62     140/  8/ 13 1011.2F
SOUTH LAKE BUOY   42 42   40/  6/  8 1013.8          0
4 MI NW BRIDGMAN  56 48  130/  6/  8 1010.8F         1/ 2
MICHIGAN CITY     47 47                N/A           1

$$
&&




USA.gov is the U.S. government's official web portal to all federal, state and local government web resources and services.